Time,TemperatureF,DewpointF,PressureIn,WindDirection,WindDirectionDegrees,WindSpeedMPH,WindSpeedGustMPH,Humidity,HourlyPrecipIn,Conditions,Clouds,dailyrainin,SoftwareType,DateUTC
2013-03-17 00:03:00,59.5,6.6,29.80,WSW,258,7.0,14.0,12,0.00,,,0.00,WUHU216DAVISVP2,2013-03-17 07:03:00,
2013-03-17 00:08:00,59.7,6.8,29.80,WSW,256,7.0,13.0,12,0.00,,,0.00,WUHU216DAVISVP2,2013-03-17 07:08:00,
2013-03-17 00:13:00,59.9,7.0,29.81,WSW,252,5.0,9.0,12,0.00,,,0.00,WUHU216DAVISVP2,2013-03-17 07:13:00,
2013-03-17 00:18:00,59.7,6.8,29.81,West,265,5.0,9.0,12,0.00,,,0.00,WUHU216DAVISVP2,2013-03-17 07:18:00,
2013-03-17 00:23:00,59.0,9.7,29.82,NW,323,3.0,6.0,14,0.00,,,0.00,WUHU216DAVISVP2,2013-03-17 07:23:00,
2013-03-17 00:28:00,57.0,9.7,29.82,NNW,336,4.0,6.0,15,0.00,,,0.00,WUHU216DAVISVP2,2013-03-17 07:28:00,
2013-03-17 00:33:00,56.1,9.0,29.82,NW,314,3.0,7.0,15,0.00,,,0.00,WUHU216DAVISVP2,2013-03-17 07:33:00,
2013-03-17 00:38:00,55.9,8.8,29.81,NW,317,3.0,6.0,15,0.00,,,0.00,WUHU216DAVISVP2,2013-03-17 07:38:00,
2013-03-17 00:43:00,55.6,8.6,29.81,NW,316,2.0,7.0,15,0.00,,,0.00,WUHU216DAVISVP2,2013-03-17 07:43:00,
2013-03-17 00:48:00,55.6,10.0,29.81,NW,319,2.0,5.0,16,0.00,,,0.00,WUHU216DAVISVP2,2013-03-17 07:48:00,
2013-03-17 00:53:00,54.9,9.5,29.82,NNW,328,3.0,4.0,16,0.00,,,0.00,WUHU216DAVISVP2,2013-03-17 07:53:00,
2013-03-17 00:58:00,54.5,9.1,29.81,NW,319,2.0,6.0,16,0.00,,,0.00,WUHU216DAVISVP2,2013-03-17 07:58:00,
2013-03-17 01:04:00,54.6,9.2,29.81,NW,309,3.0,6.0,16,0.00,,,0.00,WUHU216DAVISVP2,2013-03-17 08:04:00,
2013-03-17 01:09:00,55.4,8.4,29.81,NW,311,4.0,7.0,15,0.00,,,0.00,WUHU216DAVISVP2,2013-03-17 08:09:00,
2013-03-17 01:14:00,55.7,8.7,29.81,NW,323,3.0,6.0,15,0.00,,,0.00,WUHU216DAVISVP2,2013-03-17 08:14:00,
2013-03-17 01:19:00,55.6,10.0,29.82,NW,320,3.0,5.0,16,0.00,,,0.00,WUHU216DAVISVP2,2013-03-17 08:19:00,
2013-03-17 01:24:00,54.9,9.5,29.81,NW,324,3.0,7.0,16,0.00,,,0.00,WUHU216DAVISVP2,2013-03-17 08:24:00,
2013-03-17 01:29:00,54.5,10.5,29.81,NW,324,3.0,6.0,17,0.00,,,0.00,WUHU216DAVISVP2,2013-03-17 08:29:00,
2013-03-17 01:34:00,54.4,10.4,29.81,NNW,329,4.0,6.0,17,0.00,,,0.00,WUHU216DAVISVP2,2013-03-17 08:34:00,
2013-03-17 01:39:00,54.4,10.4,29.81,NW,319,3.0,6.0,17,0.00,,,0.00,WUHU216DAVISVP2,2013-03-17 08:39:00,
2013-03-17 01:44:00,54.7,9.3,29.81,NW,311,3.0,6.0,16,0.00,,,0.00,WUHU216DAVISVP2,2013-03-17 08:44:00,
2013-03-17 01:49:00,55.5,10.0,29.81,NW,311,4.0,7.0,16,0.00,,,0.00,WUHU216DAVISVP2,2013-03-17 08:49:00,
2013-03-17 01:54:00,56.2,10.5,29.81,NW,308,4.0,8.0,16,0.00,,,0.00,WUHU216DAVISVP2,2013-03-17 08:54:00,
2013-03-17 01:59:00,56.6,10.8,29.81,WNW,300,4.0,8.0,16,0.00,,,0.00,WUHU216DAVISVP2,2013-03-17 08:59:00,
2013-03-17 02:04:00,56.7,10.9,29.81,WNW,288,4.0,7.0,16,0.00,,,0.00,WUHU216DAVISVP2,2013-03-17 09:04:00,
2013-03-17 02:09:00,56.6,10.8,29.81,West,281,4.0,9.0,16,0.00,,,0.00,WUHU216DAVISVP2,2013-03-17 09:09:00,
2013-03-17 02:14:00,56.6,10.8,29.81,West,279,4.0,8.0,16,0.00,,,0.00,WUHU216DAVISVP2,2013-03-17 09:14:00,
2013-03-17 02:19:00,56.5,10.8,29.81,West,281,3.0,6.0,16,0.00,,,0.00,WUHU216DAVISVP2,2013-03-17 09:19:00,
2013-03-17 02:25:00,56.3,10.6,29.81,West,279,4.0,8.0,16,0.00,,,0.00,WUHU216DAVISVP2,2013-03-17 09:25:00,
2013-03-17 02:30:00,56.0,10.4,29.81,West,272,3.0,7.0,16,0.00,,,0.00,WUHU216DAVISVP2,2013-03-17 09:30:00,
2013-03-17 02:35:00,55.8,10.2,29.81,WNW,282,3.0,6.0,16,0.00,,,0.00,WUHU216DAVISVP2,2013-03-17 09:35:00,
2013-03-17 02:40:00,55.7,10.1,29.81,WNW,282,3.0,5.0,16,0.00,,,0.00,WUHU216DAVISVP2,2013-03-17 09:40:00,
2013-03-17 02:45:00,55.5,10.0,29.81,WNW,283,3.0,6.0,16,0.00,,,0.00,WUHU216DAVISVP2,2013-03-17 09:45:00,
2013-03-17 02:50:00,55.0,9.5,29.81,West,275,2.0,4.0,16,0.00,,,0.00,WUHU216DAVISVP2,2013-03-17 09:50:00,
2013-03-17 02:55:00,54.6,9.2,29.81,West,281,3.0,7.0,16,0.00,,,0.00,WUHU216DAVISVP2,2013-03-17 09:55:00,
2013-03-17 03:00:00,54.8,9.4,29.81,WNW,284,3.0,6.0,16,0.00,,,0.00,WUHU216DAVISVP2,2013-03-17 10:00:00,
2013-03-17 03:05:00,54.7,9.3,29.81,WNW,287,3.0,9.0,16,0.00,,,0.00,WUHU216DAVISVP2,2013-03-17 10:05:00,
2013-03-17 03:10:00,54.6,10.6,29.81,WNW,284,2.0,6.0,17,0.00,,,0.00,WUHU216DAVISVP2,2013-03-17 10:10:00,
2013-03-17 03:15:00,53.9,10.0,29.81,West,271,1.0,3.0,17,0.00,,,0.00,WUHU216DAVISVP2,2013-03-17 10:15:00,
2013-03-17 03:20:00,53.5,9.7,29.81,West,272,1.0,2.0,17,0.00,,,0.00,WUHU216DAVISVP2,2013-03-17 10:20:00,
2013-03-17 03:25:00,53.5,9.7,29.80,WNW,284,2.0,3.0,17,0.00,,,0.00,WUHU216DAVISVP2,2013-03-17 10:25:00,
2013-03-17 03:30:00,54.0,10.1,29.80,WNW,288,2.0,4.0,17,0.00,,,0.00,WUHU216DAVISVP2,2013-03-17 10:30:00,
2013-03-17 03:36:00,54.0,10.1,29.80,WNW,284,2.0,4.0,17,0.00,,,0.00,WUHU216DAVISVP2,2013-03-17 10:36:00,
2013-03-17 03:41:00,54.2,10.3,29.80,WNW,294,3.0,8.0,17,0.00,,,0.00,WUHU216DAVISVP2,2013-03-17 10:41:00,
2013-03-17 03:46:00,54.5,9.1,29.80,WNW,289,2.0,5.0,16,0.00,,,0.00,WUHU216DAVISVP2,2013-03-17 10:46:00,
2013-03-17 03:51:00,54.6,9.2,29.80,WNW,298,3.0,6.0,16,0.00,,,0.00,WUHU216DAVISVP2,2013-03-17 10:51:00,
2013-03-17 03:56:00,54.8,9.4,29.80,NW,308,3.0,6.0,16,0.00,,,0.00,WUHU216DAVISVP2,2013-03-17 10:56:00,
2013-03-17 04:01:00,55.0,9.5,29.80,NW,305,4.0,7.0,16,0.00,,,0.00,WUHU216DAVISVP2,2013-03-17 11:01:00,
2013-03-17 04:07:00,54.7,10.7,29.80,NW,306,2.0,5.0,17,0.00,,,0.00,WUHU216DAVISVP2,2013-03-17 11:07:00,
2013-03-17 04:12:00,52.9,10.5,29.80,NW,325,2.0,4.0,18,0.00,,,0.00,WUHU216DAVISVP2,2013-03-17 11:12:00,
2013-03-17 04:17:00,52.2,11.1,29.80,NW,323,3.0,6.0,19,0.00,,,0.00,WUHU216DAVISVP2,2013-03-17 11:17:00,
2013-03-17 04:22:00,51.9,10.9,29.80,NW,316,2.0,3.0,19,0.00,,,0.00,WUHU216DAVISVP2,2013-03-17 11:22:00,
2013-03-17 04:27:00,51.5,10.5,29.79,NW,323,2.0,4.0,19,0.00,,,0.00,WUHU216DAVISVP2,2013-03-17 11:27:00,
2013-03-17 04:32:00,51.5,10.5,29.79,NW,321,2.0,3.0,19,0.00,,,0.00,WUHU216DAVISVP2,2013-03-17 11:32:00,
2013-03-17 04:37:00,51.7,9.5,29.79,NW,308,2.0,5.0,18,0.00,,,0.00,WUHU216DAVISVP2,2013-03-17 11:37:00,
2013-03-17 04:42:00,51.9,9.6,29.80,WNW,301,2.0,4.0,18,0.00,,,0.00,WUHU216DAVISVP2,2013-03-17 11:42:00,
2013-03-17 04:47:00,52.2,9.9,29.80,WNW,298,2.0,4.0,18,0.00,,,0.00,WUHU216DAVISVP2,2013-03-17 11:47:00,
2013-03-17 04:52:00,52.0,9.7,29.80,WNW,303,1.0,3.0,18,0.00,,,0.00,WUHU216DAVISVP2,2013-03-17 11:52:00,
2013-03-17 04:57:00,52.1,9.8,29.80,NW,310,2.0,3.0,18,0.00,,,0.00,WUHU216DAVISVP2,2013-03-17 11:57:00,
2013-03-17 05:02:00,50.3,10.7,29.80,NW,317,1.0,2.0,20,0.00,,,0.00,WUHU216DAVISVP2,2013-03-17 12:02:00,
2013-03-17 05:07:00,47.9,10.8,29.80,NW,317,2.0,3.0,22,0.00,,,0.00,WUHU216DAVISVP2,2013-03-17 12:07:00,
2013-03-17 05:13:00,46.7,10.7,29.80,NW,321,1.0,2.0,23,0.00,,,0.00,WUHU216DAVISVP2,2013-03-17 12:13:00,
2013-03-17 05:18:00,45.2,12.1,29.80,NW,326,2.0,3.0,26,0.00,,,0.00,WUHU216DAVISVP2,2013-03-17 12:18:00,
2013-03-17 05:23:00,43.8,11.8,29.80,NNW,335,2.0,3.0,27,0.00,,,0.00,WUHU216DAVISVP2,2013-03-17 12:23:00,
2013-03-17 05:28:00,43.4,11.4,29.80,NNW,334,2.0,3.0,27,0.00,,,0.00,WUHU216DAVISVP2,2013-03-17 12:28:00,
2013-03-17 05:33:00,44.1,10.3,29.81,NNW,327,2.0,4.0,25,0.00,,,0.00,WUHU216DAVISVP2,2013-03-17 12:33:00,
2013-03-17 05:38:00,46.3,9.4,29.81,WNW,302,2.0,5.0,22,0.00,,,0.00,WUHU216DAVISVP2,2013-03-17 12:38:00,
2013-03-17 05:43:00,48.4,10.2,29.81,WNW,296,1.0,2.0,21,0.00,,,0.00,WUHU216DAVISVP2,2013-03-17 12:43:00,
2013-03-17 05:48:00,48.6,10.3,29.82,NW,305,2.0,3.0,21,0.00,,,0.00,WUHU216DAVISVP2,2013-03-17 12:48:00,
2013-03-17 05:53:00,49.8,10.2,29.82,WNW,296,3.0,5.0,20,0.00,,,0.00,WUHU216DAVISVP2,2013-03-17 12:53:00,
2013-03-17 05:58:00,51.2,9.1,29.82,NW,304,2.0,4.0,18,0.00,,,0.00,WUHU216DAVISVP2,2013-03-17 12:58:00,
2013-03-17 06:03:00,51.8,9.6,29.82,NW,307,2.0,3.0,18,0.00,,,0.00,WUHU216DAVISVP2,2013-03-17 13:03:00,
2013-03-17 06:08:00,50.9,11.2,29.82,NW,311,2.0,3.0,20,0.00,,,0.00,WUHU216DAVISVP2,2013-03-17 13:08:00,
2013-03-17 06:13:00,47.8,11.7,29.82,NNW,331,2.0,3.0,23,0.00,,,0.00,WUHU216DAVISVP2,2013-03-17 13:13:00,
2013-03-17 06:18:00,45.9,11.9,29.82,NNW,334,2.0,3.0,25,0.00,,,0.00,WUHU216DAVISVP2,2013-03-17 13:18:00,
2013-03-17 06:23:00,46.3,10.4,29.82,NW,312,2.0,3.0,23,0.00,,,0.00,WUHU216DAVISVP2,2013-03-17 13:23:00,
2013-03-17 06:29:00,48.1,10.9,29.82,NW,305,1.0,2.0,22,0.00,,,0.00,WUHU216DAVISVP2,2013-03-17 13:29:00,
2013-03-17 06:34:00,48.8,13.4,29.82,WNW,303,1.0,1.0,24,0.00,,,0.00,WUHU216DAVISVP2,2013-03-17 13:34:00,
2013-03-17 06:39:00,48.5,12.2,29.82,North,0,0.0,0.0,23,0.00,,,0.00,WUHU216DAVISVP2,2013-03-17 13:39:00,
2013-03-17 06:44:00,48.2,11.0,29.83,West,278,1.0,2.0,22,0.00,,,0.00,WUHU216DAVISVP2,2013-03-17 13:44:00,
2013-03-17 06:49:00,49.6,11.2,29.83,West,265,2.0,4.0,21,0.00,,,0.00,WUHU216DAVISVP2,2013-03-17 13:49:00,
2013-03-17 06:54:00,51.6,11.7,29.83,West,263,3.0,5.0,20,0.00,,,0.00,WUHU216DAVISVP2,2013-03-17 13:54:00,
2013-03-17 06:59:00,52.8,11.6,29.83,West,260,4.0,7.0,19,0.00,,,0.00,WUHU216DAVISVP2,2013-03-17 13:59:00,
2013-03-17 07:04:00,53.7,12.3,29.84,WSW,252,4.0,7.0,19,0.00,,,0.00,WUHU216DAVISVP2,2013-03-17 14:04:00,
2013-03-17 07:09:00,54.5,14.2,29.84,WSW,246,4.0,7.0,20,0.00,,,0.00,WUHU216DAVISVP2,2013-03-17 14:09:00,
2013-03-17 07:14:00,55.2,13.6,29.84,SW,236,4.0,6.0,19,0.00,,,0.00,WUHU216DAVISVP2,2013-03-17 14:14:00,
2013-03-17 07:19:00,55.7,14.0,29.84,SW,230,3.0,7.0,19,0.00,,,0.00,WUHU216DAVISVP2,2013-03-17 14:19:00,
2013-03-17 07:24:00,56.1,14.3,29.84,SW,233,3.0,6.0,19,0.00,,,0.00,WUHU216DAVISVP2,2013-03-17 14:24:00,
2013-03-17 07:29:00,56.5,13.4,29.84,WSW,246,4.0,7.0,18,0.00,,,0.00,WUHU216DAVISVP2,2013-03-17 14:29:00,
2013-03-17 07:34:00,56.8,13.7,29.84,WSW,246,4.0,8.0,18,0.00,,,0.00,WUHU216DAVISVP2,2013-03-17 14:34:00,
2013-03-17 07:39:00,57.2,15.2,29.84,WSW,247,4.0,7.0,19,0.00,,,0.00,WUHU216DAVISVP2,2013-03-17 14:39:00,
2013-03-17 07:45:00,57.5,15.5,29.85,WSW,253,4.0,9.0,19,0.00,,,0.00,WUHU216DAVISVP2,2013-03-17 14:45:00,
2013-03-17 07:50:00,57.7,16.8,29.85,WSW,242,5.0,9.0,20,0.00,,,0.00,WUHU216DAVISVP2,2013-03-17 14:50:00,
2013-03-17 07:55:00,58.1,17.1,29.85,WSW,247,6.0,9.0,20,0.00,,,0.00,WUHU216DAVISVP2,2013-03-17 14:55:00,
2013-03-17 08:00:00,58.2,17.2,29.85,SW,236,5.0,8.0,20,0.00,,,0.00,WUHU216DAVISVP2,2013-03-17 15:00:00,
2013-03-17 08:05:00,58.6,18.7,29.86,WSW,242,4.0,8.0,21,0.00,,,0.00,WUHU216DAVISVP2,2013-03-17 15:05:00,
2013-03-17 08:10:00,59.0,17.9,29.86,SW,230,4.0,7.0,20,0.00,,,0.00,WUHU216DAVISVP2,2013-03-17 15:10:00,
2013-03-17 08:15:00,59.5,18.3,29.86,WSW,238,4.0,9.0,20,0.00,,,0.00,WUHU216DAVISVP2,2013-03-17 15:15:00,
2013-03-17 08:20:00,60.1,18.8,29.86,SW,218,4.0,7.0,20,0.00,,,0.00,WUHU216DAVISVP2,2013-03-17 15:20:00,
2013-03-17 08:25:00,60.2,18.9,29.86,SW,229,4.0,6.0,20,0.00,,,0.00,WUHU216DAVISVP2,2013-03-17 15:25:00,
2013-03-17 08:30:00,60.2,18.9,29.86,SSW,213,4.0,7.0,20,0.00,,,0.00,WUHU216DAVISVP2,2013-03-17 15:30:00,
2013-03-17 08:35:00,60.3,19.0,29.86,SW,217,3.0,5.0,20,0.00,,,0.00,WUHU216DAVISVP2,2013-03-17 15:35:00,
2013-03-17 08:40:00,60.8,19.4,29.86,WSW,247,3.0,7.0,20,0.00,,,0.00,WUHU216DAVISVP2,2013-03-17 15:40:00,
2013-03-17 08:45:00,61.1,19.6,29.86,West,263,3.0,6.0,20,0.00,,,0.00,WUHU216DAVISVP2,2013-03-17 15:45:00,
2013-03-17 08:51:00,61.3,19.8,29.86,SW,223,2.0,4.0,20,0.00,,,0.00,WUHU216DAVISVP2,2013-03-17 15:51:00,
2013-03-17 08:56:00,61.7,20.1,29.86,SSW,200,3.0,5.0,20,0.00,,,0.00,WUHU216DAVISVP2,2013-03-17 15:56:00,
2013-03-17 09:01:00,61.6,20.1,29.86,South,190,4.0,7.0,20,0.00,,,0.00,WUHU216DAVISVP2,2013-03-17 16:01:00,
2013-03-17 09:06:00,62.0,20.4,29.86,SW,214,4.0,7.0,20,0.00,,,0.00,WUHU216DAVISVP2,2013-03-17 16:06:00,
2013-03-17 09:11:00,62.3,20.6,29.86,SW,218,3.0,6.0,20,0.00,,,0.00,WUHU216DAVISVP2,2013-03-17 16:11:00,
2013-03-17 09:16:00,62.8,19.9,29.86,WSW,240,3.0,6.0,19,0.00,,,0.00,WUHU216DAVISVP2,2013-03-17 16:16:00,
2013-03-17 09:21:00,63.3,20.3,29.86,SW,216,3.0,7.0,19,0.00,,,0.00,WUHU216DAVISVP2,2013-03-17 16:21:00,
2013-03-17 09:26:00,63.7,20.6,29.86,WSW,256,5.0,10.0,19,0.00,,,0.00,WUHU216DAVISVP2,2013-03-17 16:26:00,
2013-03-17 09:31:00,63.9,20.8,29.86,WSW,242,4.0,7.0,19,0.00,,,0.00,WUHU216DAVISVP2,2013-03-17 16:31:00,
2013-03-17 09:37:00,64.0,20.8,29.86,SSW,209,4.0,8.0,19,0.00,,,0.00,WUHU216DAVISVP2,2013-03-17 16:37:00,
2013-03-17 09:42:00,64.7,21.4,29.86,SSW,204,6.0,11.0,19,0.00,,,0.00,WUHU216DAVISVP2,2013-03-17 16:42:00,
2013-03-17 09:47:00,65.1,21.8,29.86,SW,224,5.0,9.0,19,0.00,,,0.00,WUHU216DAVISVP2,2013-03-17 16:47:00,
2013-03-17 09:52:00,65.1,21.8,29.86,SW,226,7.0,12.0,19,0.00,,,0.00,WUHU216DAVISVP2,2013-03-17 16:52:00,
2013-03-17 09:57:00,65.2,21.8,29.86,SW,229,6.0,11.0,19,0.00,,,0.00,WUHU216DAVISVP2,2013-03-17 16:57:00,
2013-03-17 10:02:00,65.5,22.1,29.86,WSW,245,6.0,10.0,19,0.00,,,0.00,WUHU216DAVISVP2,2013-03-17 17:02:00,
2013-03-17 10:07:00,65.8,22.3,29.86,SW,231,6.0,14.0,19,0.00,,,0.00,WUHU216DAVISVP2,2013-03-17 17:07:00,
2013-03-17 10:13:00,66.2,21.4,29.86,SW,214,6.0,13.0,18,0.00,,,0.00,WUHU216DAVISVP2,2013-03-17 17:13:00,
2013-03-17 10:18:00,66.3,22.7,29.86,SSW,211,7.0,13.0,19,0.00,,,0.00,WUHU216DAVISVP2,2013-03-17 17:18:00,
2013-03-17 10:23:00,67.1,23.4,29.86,SW,228,7.0,12.0,19,0.00,,,0.00,WUHU216DAVISVP2,2013-03-17 17:23:00,
2013-03-17 10:28:00,67.9,22.8,29.86,SW,224,8.0,13.0,18,0.00,,,0.00,WUHU216DAVISVP2,2013-03-17 17:28:00,
2013-03-17 10:33:00,67.8,22.7,29.85,SW,221,9.0,15.0,18,0.00,,,0.00,WUHU216DAVISVP2,2013-03-17 17:33:00,
2013-03-17 10:38:00,68.2,23.0,29.86,WSW,244,8.0,15.0,18,0.00,,,0.00,WUHU216DAVISVP2,2013-03-17 17:38:00,
2013-03-17 10:43:00,68.3,23.1,29.85,WSW,248,11.0,18.0,18,0.00,,,0.00,WUHU216DAVISVP2,2013-03-17 17:43:00,
2013-03-17 10:48:00,68.2,23.0,29.85,WSW,238,11.0,18.0,18,0.00,,,0.00,WUHU216DAVISVP2,2013-03-17 17:48:00,
2013-03-17 10:53:00,68.3,21.7,29.85,WSW,243,10.0,16.0,17,0.00,,,0.00,WUHU216DAVISVP2,2013-03-17 17:53:00,
2013-03-17 10:58:00,68.3,21.7,29.85,WSW,248,9.0,17.0,17,0.00,,,0.00,WUHU216DAVISVP2,2013-03-17 17:58:00,
2013-03-17 11:03:00,69.2,21.0,29.85,WSW,251,10.0,16.0,16,0.00,,,0.00,WUHU216DAVISVP2,2013-03-17 18:03:00,
2013-03-17 11:08:00,69.0,20.9,29.84,WSW,258,10.0,17.0,16,0.00,,,0.00,WUHU216DAVISVP2,2013-03-17 18:08:00,
2013-03-17 11:13:00,68.7,22.1,29.84,WSW,241,11.0,20.0,17,0.00,,,0.00,WUHU216DAVISVP2,2013-03-17 18:13:00,
2013-03-17 11:18:00,68.6,20.5,29.84,WSW,251,13.0,21.0,16,0.00,,,0.00,WUHU216DAVISVP2,2013-03-17 18:18:00,
2013-03-17 11:23:00,69.1,22.4,29.84,WSW,243,7.0,15.0,17,0.00,,,0.00,WUHU216DAVISVP2,2013-03-17 18:23:00,
2013-03-17 11:28:00,69.3,21.1,29.83,SSW,209,11.0,19.0,16,0.00,,,0.00,WUHU216DAVISVP2,2013-03-17 18:28:00,
2013-03-17 11:34:00,69.3,21.1,29.83,SSW,212,10.0,20.0,16,0.00,,,0.00,WUHU216DAVISVP2,2013-03-17 18:34:00,
2013-03-17 11:39:00,69.5,19.7,29.83,WSW,251,12.0,20.0,15,0.00,,,0.00,WUHU216DAVISVP2,2013-03-17 18:39:00,
2013-03-17 11:44:00,69.5,19.7,29.83,WSW,241,13.0,24.0,15,0.00,,,0.00,WUHU216DAVISVP2,2013-03-17 18:44:00,
2013-03-17 11:49:00,69.8,20.0,29.84,WSW,257,14.0,26.0,15,0.00,,,0.00,WUHU216DAVISVP2,2013-03-17 18:49:00,
2013-03-17 11:54:00,70.4,20.5,29.83,West,267,10.0,16.0,15,0.00,,,0.00,WUHU216DAVISVP2,2013-03-17 18:54:00,
2013-03-17 11:59:00,70.3,20.4,29.83,WSW,253,11.0,21.0,15,0.00,,,0.00,WUHU216DAVISVP2,2013-03-17 18:59:00,
2013-03-17 12:04:00,70.3,20.4,29.83,West,262,12.0,19.0,15,0.00,,,0.00,WUHU216DAVISVP2,2013-03-17 19:04:00,
2013-03-17 12:09:00,70.7,20.7,29.82,WSW,253,13.0,20.0,15,0.00,,,0.00,WUHU216DAVISVP2,2013-03-17 19:09:00,
2013-03-17 12:14:00,70.4,20.5,29.82,WSW,243,13.0,19.0,15,0.00,,,0.00,WUHU216DAVISVP2,2013-03-17 19:14:00,
2013-03-17 12:19:00,70.6,19.0,29.82,WSW,256,14.0,24.0,14,0.00,,,0.00,WUHU216DAVISVP2,2013-03-17 19:19:00,
2013-03-17 12:24:00,70.5,20.5,29.82,West,262,14.0,27.0,15,0.00,,,0.00,WUHU216DAVISVP2,2013-03-17 19:24:00,
2013-03-17 12:29:00,70.7,20.7,29.81,WSW,256,13.0,20.0,15,0.00,,,0.00,WUHU216DAVISVP2,2013-03-17 19:29:00,
2013-03-17 12:34:00,70.4,20.5,29.81,WSW,240,15.0,24.0,15,0.00,,,0.00,WUHU216DAVISVP2,2013-03-17 19:34:00,
2013-03-17 12:40:00,70.3,20.4,29.81,SW,232,15.0,23.0,15,0.00,,,0.00,WUHU216DAVISVP2,2013-03-17 19:40:00,
2013-03-17 12:45:00,71.1,21.0,29.81,West,267,13.0,22.0,15,0.00,,,0.00,WUHU216DAVISVP2,2013-03-17 19:45:00,
2013-03-17 12:50:00,71.2,21.1,29.81,WSW,247,11.0,22.0,15,0.00,,,0.00,WUHU216DAVISVP2,2013-03-17 19:50:00,
2013-03-17 12:55:00,71.4,22.8,29.80,WSW,242,13.0,22.0,16,0.00,,,0.00,WUHU216DAVISVP2,2013-03-17 19:55:00,
2013-03-17 13:00:00,71.5,21.3,29.81,WSW,258,14.0,22.0,15,0.00,,,0.00,WUHU216DAVISVP2,2013-03-17 20:00:00,
2013-03-17 13:05:00,71.0,22.5,29.80,WSW,255,13.0,21.0,16,0.00,,,0.00,WUHU216DAVISVP2,2013-03-17 20:05:00,
2013-03-17 13:10:00,71.7,21.5,29.80,WSW,246,16.0,25.0,15,0.00,,,0.00,WUHU216DAVISVP2,2013-03-17 20:10:00,
2013-03-17 13:15:00,71.6,21.4,29.80,WSW,253,13.0,22.0,15,0.00,,,0.00,WUHU216DAVISVP2,2013-03-17 20:15:00,
2013-03-17 13:20:00,71.4,21.3,29.80,WSW,249,13.0,20.0,15,0.00,,,0.00,WUHU216DAVISVP2,2013-03-17 20:20:00,
2013-03-17 13:25:00,71.6,21.4,29.80,West,267,12.0,28.0,15,0.00,,,0.00,WUHU216DAVISVP2,2013-03-17 20:25:00,
2013-03-17 13:30:00,71.9,20.0,29.80,WSW,256,13.0,22.0,14,0.00,,,0.00,WUHU216DAVISVP2,2013-03-17 20:30:00,
2013-03-17 13:35:00,71.9,21.7,29.80,WSW,242,15.0,22.0,15,0.00,,,0.00,WUHU216DAVISVP2,2013-03-17 20:35:00,
2013-03-17 13:40:00,71.4,22.8,29.80,WSW,250,12.0,20.0,16,0.00,,,0.00,WUHU216DAVISVP2,2013-03-17 20:40:00,
2013-03-17 13:46:00,72.2,21.9,29.80,WSW,254,10.0,20.0,15,0.00,,,0.00,WUHU216DAVISVP2,2013-03-17 20:46:00,
2013-03-17 13:51:00,72.5,20.5,29.79,West,260,15.0,28.0,14,0.00,,,0.00,WUHU216DAVISVP2,2013-03-17 20:51:00,
2013-03-17 13:56:00,72.4,20.4,29.79,West,262,14.0,20.0,14,0.00,,,0.00,WUHU216DAVISVP2,2013-03-17 20:56:00,
2013-03-17 14:01:00,72.7,20.6,29.78,WSW,241,12.0,19.0,14,0.00,,,0.00,WUHU216DAVISVP2,2013-03-17 21:01:00,
2013-03-17 14:06:00,73.7,19.6,29.79,West,259,13.0,19.0,13,0.00,,,0.00,WUHU216DAVISVP2,2013-03-17 21:06:00,
2013-03-17 14:11:00,73.3,19.3,29.78,West,266,13.0,19.0,13,0.00,,,0.00,WUHU216DAVISVP2,2013-03-17 21:11:00,
2013-03-17 14:16:00,72.9,19.0,29.78,West,260,14.0,22.0,13,0.00,,,0.00,WUHU216DAVISVP2,2013-03-17 21:16:00,
2013-03-17 14:21:00,72.8,20.7,29.78,WSW,237,10.0,19.0,14,0.00,,,0.00,WUHU216DAVISVP2,2013-03-17 21:21:00,
2013-03-17 14:26:00,73.2,19.3,29.78,West,260,13.0,26.0,13,0.00,,,0.00,WUHU216DAVISVP2,2013-03-17 21:26:00,
2013-03-17 14:31:00,72.9,19.0,29.78,West,271,9.0,15.0,13,0.00,,,0.00,WUHU216DAVISVP2,2013-03-17 21:31:00,
2013-03-17 14:37:00,72.8,18.9,29.78,West,272,13.0,21.0,13,0.00,,,0.00,WUHU216DAVISVP2,2013-03-17 21:37:00,
2013-03-17 14:42:00,72.6,18.8,29.77,WSW,249,13.0,23.0,13,0.00,,,0.00,WUHU216DAVISVP2,2013-03-17 21:42:00,
2013-03-17 14:47:00,72.8,17.0,29.78,West,270,14.0,28.0,12,0.00,,,0.00,WUHU216DAVISVP2,2013-03-17 21:47:00,
2013-03-17 14:52:00,72.3,14.6,29.78,West,275,15.0,22.0,11,0.00,,,0.00,WUHU216DAVISVP2,2013-03-17 21:52:00,
2013-03-17 14:57:00,72.5,16.8,29.78,West,264,13.0,19.0,12,0.00,,,0.00,WUHU216DAVISVP2,2013-03-17 21:57:00,
2013-03-17 15:02:00,72.2,16.6,29.78,West,271,17.0,27.0,12,0.00,,,0.00,WUHU216DAVISVP2,2013-03-17 22:02:00,
2013-03-17 15:07:00,72.6,16.9,29.78,West,262,11.0,21.0,12,0.00,,,0.00,WUHU216DAVISVP2,2013-03-17 22:07:00,
2013-03-17 15:12:00,72.6,16.9,29.79,West,269,12.0,21.0,12,0.00,,,0.00,WUHU216DAVISVP2,2013-03-17 22:12:00,
2013-03-17 15:17:00,72.6,16.9,29.78,WSW,249,12.0,19.0,12,0.00,,,0.00,WUHU216DAVISVP2,2013-03-17 22:17:00,
2013-03-17 15:22:00,72.4,18.6,29.78,West,265,15.0,21.0,13,0.00,,,0.00,WUHU216DAVISVP2,2013-03-17 22:22:00,
2013-03-17 15:27:00,72.1,18.4,29.79,West,274,12.0,23.0,13,0.00,,,0.00,WUHU216DAVISVP2,2013-03-17 22:27:00,
2013-03-17 15:32:00,72.9,19.0,29.79,West,265,11.0,22.0,13,0.00,,,0.00,WUHU216DAVISVP2,2013-03-17 22:32:00,
2013-03-17 15:37:00,73.2,19.3,29.79,West,275,12.0,22.0,13,0.00,,,0.00,WUHU216DAVISVP2,2013-03-17 22:37:00,
2013-03-17 15:42:00,72.5,18.7,29.79,West,279,11.0,24.0,13,0.00,,,0.00,WUHU216DAVISVP2,2013-03-17 22:42:00,
2013-03-17 15:47:00,72.2,16.6,29.79,West,271,16.0,27.0,12,0.00,,,0.00,WUHU216DAVISVP2,2013-03-17 22:47:00,
2013-03-17 15:53:00,72.0,16.4,29.79,WNW,285,11.0,17.0,12,0.00,,,0.00,WUHU216DAVISVP2,2013-03-17 22:53:00,
2013-03-17 15:58:00,71.9,16.3,29.79,West,279,11.0,19.0,12,0.00,,,0.00,WUHU216DAVISVP2,2013-03-17 22:58:00,
2013-03-17 16:03:00,72.0,18.3,29.79,West,278,12.0,24.0,13,0.00,,,0.00,WUHU216DAVISVP2,2013-03-17 23:03:00,
2013-03-17 16:08:00,71.6,18.0,29.80,WNW,288,14.0,22.0,13,0.00,,,0.00,WUHU216DAVISVP2,2013-03-17 23:08:00,
2013-03-17 16:13:00,71.7,18.1,29.79,WNW,287,12.0,20.0,13,0.00,,,0.00,WUHU216DAVISVP2,2013-03-17 23:13:00,
2013-03-17 16:18:00,71.8,18.2,29.79,WNW,289,11.0,18.0,13,0.00,,,0.00,WUHU216DAVISVP2,2013-03-17 23:18:00,
2013-03-17 16:23:00,71.6,18.0,29.79,West,281,13.0,20.0,13,0.00,,,0.00,WUHU216DAVISVP2,2013-03-17 23:23:00,
2013-03-17 16:28:00,71.4,17.8,29.79,West,280,12.0,20.0,13,0.00,,,0.00,WUHU216DAVISVP2,2013-03-17 23:28:00,
2013-03-17 16:33:00,71.5,17.9,29.79,WNW,291,11.0,18.0,13,0.00,,,0.00,WUHU216DAVISVP2,2013-03-17 23:33:00,
2013-03-17 16:38:00,71.8,18.2,29.79,West,281,11.0,22.0,13,0.00,,,0.00,WUHU216DAVISVP2,2013-03-17 23:38:00,
2013-03-17 16:43:00,71.4,17.8,29.80,West,276,13.0,23.0,13,0.00,,,0.00,WUHU216DAVISVP2,2013-03-17 23:43:00,
2013-03-17 16:48:00,70.9,17.4,29.80,West,277,15.0,21.0,13,0.00,,,0.00,WUHU216DAVISVP2,2013-03-17 23:48:00,
2013-03-17 16:53:00,70.7,19.1,29.80,West,270,15.0,22.0,14,0.00,,,0.00,WUHU216DAVISVP2,2013-03-17 23:53:00,
2013-03-17 16:58:00,70.3,18.7,29.80,West,277,13.0,21.0,14,0.00,,,0.00,WUHU216DAVISVP2,2013-03-17 23:58:00,
2013-03-17 17:03:00,69.8,18.3,29.80,West,267,13.0,21.0,14,0.00,,,0.00,WUHU216DAVISVP2,2013-03-18 00:03:00,
2013-03-17 17:08:00,69.6,18.2,29.80,West,277,15.0,22.0,14,0.00,,,0.00,WUHU216DAVISVP2,2013-03-18 00:08:00,
2013-03-17 17:14:00,69.4,18.0,29.80,West,261,12.0,17.0,14,0.00,,,0.00,WUHU216DAVISVP2,2013-03-18 00:14:00,
2013-03-17 17:19:00,68.3,17.1,29.80,WSW,252,13.0,21.0,14,0.00,,,0.00,WUHU216DAVISVP2,2013-03-18 00:19:00,
2013-03-17 17:24:00,67.7,18.3,29.81,West,266,11.0,19.0,15,0.00,,,0.00,WUHU216DAVISVP2,2013-03-18 00:24:00,
2013-03-17 17:29:00,67.4,18.1,29.81,West,265,12.0,19.0,15,0.00,,,0.00,WUHU216DAVISVP2,2013-03-18 00:29:00,
2013-03-17 17:34:00,67.2,17.9,29.81,West,270,12.0,18.0,15,0.00,,,0.00,WUHU216DAVISVP2,2013-03-18 00:34:00,
2013-03-17 17:39:00,67.2,17.9,29.81,West,271,13.0,21.0,15,0.00,,,0.00,WUHU216DAVISVP2,2013-03-18 00:39:00,
2013-03-17 17:44:00,67.1,17.8,29.81,West,264,9.0,15.0,15,0.00,,,0.00,WUHU216DAVISVP2,2013-03-18 00:44:00,
2013-03-17 17:49:00,66.9,17.7,29.81,West,278,12.0,20.0,15,0.00,,,0.00,WUHU216DAVISVP2,2013-03-18 00:49:00,
2013-03-17 17:54:00,66.7,17.5,29.82,West,276,11.0,21.0,15,0.00,,,0.00,WUHU216DAVISVP2,2013-03-18 00:54:00,
2013-03-17 17:59:00,66.6,18.9,29.82,West,273,11.0,17.0,16,0.00,,,0.00,WUHU216DAVISVP2,2013-03-18 00:59:00,
2013-03-17 18:04:00,66.4,18.8,29.82,West,277,10.0,16.0,16,0.00,,,0.00,WUHU216DAVISVP2,2013-03-18 01:04:00,
2013-03-17 18:09:00,66.1,18.5,29.82,West,277,8.0,14.0,16,0.00,,,0.00,WUHU216DAVISVP2,2013-03-18 01:09:00,
2013-03-17 18:14:00,65.9,18.4,29.83,West,279,8.0,15.0,16,0.00,,,0.00,WUHU216DAVISVP2,2013-03-18 01:14:00,
2013-03-17 18:19:00,65.7,18.2,29.83,WNW,282,9.0,18.0,16,0.00,,,0.00,WUHU216DAVISVP2,2013-03-18 01:19:00,
2013-03-17 18:24:00,65.5,19.5,29.83,West,280,10.0,18.0,17,0.00,,,0.00,WUHU216DAVISVP2,2013-03-18 01:24:00,
2013-03-17 18:29:00,65.2,19.2,29.83,West,276,9.0,14.0,17,0.00,,,0.00,WUHU216DAVISVP2,2013-03-18 01:29:00,
2013-03-17 18:35:00,65.1,20.5,29.83,West,276,10.0,18.0,18,0.00,,,0.00,WUHU216DAVISVP2,2013-03-18 01:35:00,
2013-03-17 18:40:00,64.8,20.2,29.83,West,278,10.0,16.0,18,0.00,,,0.00,WUHU216DAVISVP2,2013-03-18 01:40:00,
2013-03-17 18:45:00,64.5,20.0,29.83,WNW,282,8.0,15.0,18,0.00,,,0.00,WUHU216DAVISVP2,2013-03-18 01:45:00,
2013-03-17 18:50:00,64.2,19.7,29.84,WNW,299,7.0,12.0,18,0.00,,,0.00,WUHU216DAVISVP2,2013-03-18 01:50:00,
2013-03-17 18:55:00,63.9,19.5,29.84,NW,309,7.0,13.0,18,0.00,,,0.00,WUHU216DAVISVP2,2013-03-18 01:55:00,
2013-03-17 19:00:00,63.5,19.2,29.84,WNW,299,6.0,10.0,18,0.00,,,0.00,WUHU216DAVISVP2,2013-03-18 02:00:00,
2013-03-17 19:05:00,63.2,18.9,29.84,WNW,289,6.0,11.0,18,0.00,,,0.00,WUHU216DAVISVP2,2013-03-18 02:05:00,
2013-03-17 19:10:00,63.0,18.8,29.84,WNW,289,8.0,13.0,18,0.00,,,0.00,WUHU216DAVISVP2,2013-03-18 02:10:00,
2013-03-17 19:15:00,62.8,19.9,29.85,WNW,285,7.0,14.0,19,0.00,,,0.00,WUHU216DAVISVP2,2013-03-18 02:15:00,
2013-03-17 19:20:00,62.8,19.9,29.85,WNW,284,8.0,15.0,19,0.00,,,0.00,WUHU216DAVISVP2,2013-03-18 02:20:00,
2013-03-17 19:25:00,62.6,19.7,29.85,WNW,283,8.0,15.0,19,0.00,,,0.00,WUHU216DAVISVP2,2013-03-18 02:25:00,
2013-03-17 19:30:00,62.4,19.5,29.85,West,281,8.0,16.0,19,0.00,,,0.00,WUHU216DAVISVP2,2013-03-18 02:30:00,
2013-03-17 19:35:00,62.3,19.4,29.85,WNW,284,10.0,17.0,19,0.00,,,0.00,WUHU216DAVISVP2,2013-03-18 02:35:00,
2013-03-17 19:41:00,62.2,19.4,29.85,WNW,285,8.0,15.0,19,0.00,,,0.00,WUHU216DAVISVP2,2013-03-18 02:41:00,
2013-03-17 19:46:00,61.9,20.3,29.85,WNW,287,7.0,13.0,20,0.00,,,0.00,WUHU216DAVISVP2,2013-03-18 02:46:00,
2013-03-17 19:51:00,61.6,20.1,29.85,WNW,287,7.0,12.0,20,0.00,,,0.00,WUHU216DAVISVP2,2013-03-18 02:51:00,
2013-03-17 19:56:00,61.7,20.1,29.85,WNW,288,9.0,14.0,20,0.00,,,0.00,WUHU216DAVISVP2,2013-03-18 02:56:00,
2013-03-17 20:01:00,61.9,20.3,29.85,WNW,287,9.0,14.0,20,0.00,,,0.00,WUHU216DAVISVP2,2013-03-18 03:01:00,
2013-03-17 20:06:00,61.7,20.1,29.86,WNW,295,6.0,10.0,20,0.00,,,0.00,WUHU216DAVISVP2,2013-03-18 03:06:00,
2013-03-17 20:11:00,61.3,19.8,29.86,WNW,290,6.0,11.0,20,0.00,,,0.00,WUHU216DAVISVP2,2013-03-18 03:11:00,
2013-03-17 20:16:00,61.2,19.7,29.86,WNW,293,6.0,10.0,20,0.00,,,0.00,WUHU216DAVISVP2,2013-03-18 03:16:00,
2013-03-17 20:21:00,61.1,19.6,29.86,WNW,288,5.0,11.0,20,0.00,,,0.00,WUHU216DAVISVP2,2013-03-18 03:21:00,
2013-03-17 20:26:00,60.9,20.6,29.86,WNW,288,5.0,9.0,21,0.00,,,0.00,WUHU216DAVISVP2,2013-03-18 03:26:00,
2013-03-17 20:31:00,60.9,20.6,29.86,NW,304,7.0,13.0,21,0.00,,,0.00,WUHU216DAVISVP2,2013-03-18 03:31:00,
2013-03-17 20:36:00,60.8,20.5,29.86,NW,313,6.0,12.0,21,0.00,,,0.00,WUHU216DAVISVP2,2013-03-18 03:36:00,
2013-03-17 20:42:00,60.6,20.4,29.87,WNW,302,6.0,11.0,21,0.00,,,0.00,WUHU216DAVISVP2,2013-03-18 03:42:00,
2013-03-17 20:47:00,60.4,20.2,29.87,WNW,300,4.0,9.0,21,0.00,,,0.00,WUHU216DAVISVP2,2013-03-18 03:47:00,
2013-03-17 20:52:00,60.0,20.9,29.87,West,276,4.0,7.0,22,0.00,,,0.00,WUHU216DAVISVP2,2013-03-18 03:52:00,
2013-03-17 20:57:00,59.4,20.4,29.87,West,278,2.0,3.0,22,0.00,,,0.00,WUHU216DAVISVP2,2013-03-18 03:57:00,
2013-03-17 21:02:00,58.8,19.9,29.87,West,274,1.0,1.0,22,0.00,,,0.00,WUHU216DAVISVP2,2013-03-18 04:02:00,
2013-03-17 21:07:00,58.2,20.4,29.88,West,274,1.0,3.0,23,0.00,,,0.00,WUHU216DAVISVP2,2013-03-18 04:07:00,
2013-03-17 21:12:00,58.0,20.3,29.88,WNW,285,2.0,5.0,23,0.00,,,0.00,WUHU216DAVISVP2,2013-03-18 04:12:00,
2013-03-17 21:17:00,58.0,20.3,29.89,WNW,282,3.0,6.0,23,0.00,,,0.00,WUHU216DAVISVP2,2013-03-18 04:17:00,
2013-03-17 21:22:00,57.5,20.8,29.89,NW,318,3.0,5.0,24,0.00,,,0.00,WUHU216DAVISVP2,2013-03-18 04:22:00,
2013-03-17 21:27:00,57.1,20.5,29.89,NW,315,3.0,7.0,24,0.00,,,0.00,WUHU216DAVISVP2,2013-03-18 04:27:00,
2013-03-17 21:32:00,57.8,21.1,29.90,WNW,300,5.0,8.0,24,0.00,,,0.00,WUHU216DAVISVP2,2013-03-18 04:32:00,
2013-03-17 21:37:00,58.2,21.4,29.90,WNW,295,4.0,8.0,24,0.00,,,0.00,WUHU216DAVISVP2,2013-03-18 04:37:00,
2013-03-17 21:43:00,58.4,20.6,29.90,WNW,289,5.0,9.0,23,0.00,,,0.00,WUHU216DAVISVP2,2013-03-18 04:43:00,
2013-03-17 21:48:00,58.4,20.6,29.90,WNW,290,5.0,7.0,23,0.00,,,0.00,WUHU216DAVISVP2,2013-03-18 04:48:00,
2013-03-17 21:53:00,58.4,20.6,29.90,WNW,288,6.0,8.0,23,0.00,,,0.00,WUHU216DAVISVP2,2013-03-18 04:53:00,
2013-03-17 21:58:00,58.4,20.6,29.90,WNW,288,6.0,10.0,23,0.00,,,0.00,WUHU216DAVISVP2,2013-03-18 04:58:00,
2013-03-17 22:03:00,58.3,20.5,29.89,WNW,282,6.0,10.0,23,0.00,,,0.00,WUHU216DAVISVP2,2013-03-18 05:03:00,
2013-03-17 22:08:00,58.3,20.5,29.90,West,275,6.0,10.0,23,0.00,,,0.00,WUHU216DAVISVP2,2013-03-18 05:08:00,
2013-03-17 22:13:00,58.2,20.4,29.90,West,273,7.0,10.0,23,0.00,,,0.00,WUHU216DAVISVP2,2013-03-18 05:13:00,
2013-03-17 22:18:00,58.3,20.5,29.90,WNW,283,6.0,12.0,23,0.00,,,0.00,WUHU216DAVISVP2,2013-03-18 05:18:00,
2013-03-17 22:25:00,58.0,20.3,29.91,WNW,289,5.0,9.0,23,0.00,,,0.00,WUHU216DAVISVP2,2013-03-18 05:25:00,
2013-03-17 22:30:00,57.9,20.2,29.91,WNW,298,3.0,8.0,23,0.00,,,0.00,WUHU216DAVISVP2,2013-03-18 05:30:00,
2013-03-17 22:35:00,57.6,19.9,29.92,WNW,288,3.0,10.0,23,0.00,,,0.00,WUHU216DAVISVP2,2013-03-18 05:35:00,
2013-03-17 22:40:00,57.4,19.8,29.92,WNW,287,3.0,6.0,23,0.00,,,0.00,WUHU216DAVISVP2,2013-03-18 05:40:00,
2013-03-17 22:45:00,57.0,20.4,29.93,West,279,2.0,6.0,24,0.00,,,0.00,WUHU216DAVISVP2,2013-03-18 05:45:00,
2013-03-17 22:50:00,56.6,20.1,29.93,WNW,289,3.0,8.0,24,0.00,,,0.00,WUHU216DAVISVP2,2013-03-18 05:50:00,
2013-03-17 22:55:00,56.6,20.1,29.93,WNW,292,4.0,7.0,24,0.00,,,0.00,WUHU216DAVISVP2,2013-03-18 05:55:00,
2013-03-17 23:00:00,56.2,20.7,29.93,NW,311,3.0,6.0,25,0.00,,,0.00,WUHU216DAVISVP2,2013-03-18 06:00:00,
2013-03-17 23:05:00,55.9,20.4,29.93,NW,309,5.0,7.0,25,0.00,,,0.00,WUHU216DAVISVP2,2013-03-18 06:05:00,
2013-03-17 23:10:00,55.9,20.4,29.92,NW,310,5.0,9.0,25,0.00,,,0.00,WUHU216DAVISVP2,2013-03-18 06:10:00,
2013-03-17 23:15:00,56.2,19.7,29.92,WNW,294,6.0,12.0,24,0.00,,,0.00,WUHU216DAVISVP2,2013-03-18 06:15:00,
2013-03-17 23:20:00,56.3,19.8,29.92,WNW,290,4.0,8.0,24,0.00,,,0.00,WUHU216DAVISVP2,2013-03-18 06:20:00,
2013-03-17 23:25:00,56.4,19.9,29.91,WNW,287,5.0,10.0,24,0.00,,,0.00,WUHU216DAVISVP2,2013-03-18 06:25:00,
2013-03-17 23:30:00,56.3,19.8,29.91,WNW,289,6.0,9.0,24,0.00,,,0.00,WUHU216DAVISVP2,2013-03-18 06:30:00,
2013-03-17 23:36:00,56.4,19.9,29.91,WNW,301,6.0,10.0,24,0.00,,,0.00,WUHU216DAVISVP2,2013-03-18 06:36:00,
2013-03-17 23:41:00,56.1,20.6,29.92,NW,312,6.0,9.0,25,0.00,,,0.00,WUHU216DAVISVP2,2013-03-18 06:41:00,
2013-03-17 23:47:00,55.9,20.4,29.92,NW,304,6.0,11.0,25,0.00,,,0.00,WUHU216DAVISVP2,2013-03-18 06:47:00,
2013-03-17 23:52:00,55.5,20.1,29.92,NW,321,4.0,8.0,25,0.00,,,0.00,WUHU216DAVISVP2,2013-03-18 06:52:00,
2013-03-17 23:57:00,54.9,20.5,29.92,NNW,328,4.0,7.0,26,0.00,,,0.00,WUHU216DAVISVP2,2013-03-18 06:57:00,